, MO

(GMT )
Kansas City

Weather History for KMKC - April, 2014

Change the Weather History Date:

Saturday, April 5, 2014

  Actual Average Record
Temperature  
Mean Temperature 45 °F -  
Max Temperature 59 °F 60 °F 80 °F (2001)
Min Temperature 33 °F 41 °F 28 °F (2007)
Degree Days  
Heating Degree Days 20    
Moisture  
Dew Point 29 °F    
Average Humidity 55    
Maximum Humidity 92    
Minimum Humidity 32    
Precipitation  
Precipitation 0.00 in - - ()
Sea Level Pressure  
Sea Level Pressure 30.14 in    
Wind  
Wind Speed 3 mph (SE)    
Max Wind Speed 10 mph    
Max Gust Speed -    
Visibility 10 miles    
Events      
Averages and records for this station are not official NWS values.
T = Trace of Precipitation, MM = Missing Value Source: NWS Daily Summary

Daily Weather History Graph

Daily Weather History Graph

Search for Another Location

Airport or City:

Trip Planner

Search our weather history database for the weather conditions in past years. The results will help you decide how hot, cold, wet, or windy it might be!

Date:

Astronomy

Apr. 05, 2014 Rise Set
Actual Time 6:56 AM CDT 7:46 PM CDT
Civil Twilight 6:29 AM CDT 8:13 PM CDT
Nautical Twilight 5:57 AM CDT 8:45 PM CDT
Astronomical Twilight 5:24 AM CDT 9:18 PM CDT
Moon 11:06 AM CDT (4/5) 12:55 AM CDT (4/5)
Length of Visible Light 13h 43m
Length of Day
12h 49m
Waxing Crescent, 34% of the Moon is Illuminated
Apr 5
Waxing Crescent
Apr 7
First Quarter
Apr 15
Full
Apr 22
Last Quarter
Apr 29
New

Hourly Weather History & Observations

Time (CDT) Temp. Windchill Dew Point Humidity Pressure Visibility Wind Dir Wind Speed Gust Speed Precip Events Conditions
12:54 AM 34.0 °F - 28.0 °F 79% 30.19 in 10.0 mi Calm Calm - N/A   Clear
1:54 AM 35.1 °F - 28.0 °F 76% 30.20 in 10.0 mi Calm Calm - N/A   Clear
2:54 AM 33.1 °F - 27.0 °F 78% 30.19 in 10.0 mi Calm Calm - N/A   Clear
3:54 AM 34.0 °F - 28.9 °F 82% 30.19 in 10.0 mi Calm Calm - N/A   Clear
4:54 AM 33.1 °F 30.0 °F 28.9 °F 85% 30.18 in 10.0 mi NE 3.5 mph - N/A   Clear
5:54 AM 33.1 °F 30.0 °F 27.0 °F 78% 30.18 in 10.0 mi NNE 3.5 mph - N/A   Clear
6:54 AM 33.1 °F - 27.0 °F 78% 30.20 in 10.0 mi Calm Calm - N/A   Clear
7:54 AM 33.1 °F - 30.9 °F 92% 30.22 in 9.0 mi Calm Calm - N/A   Clear
8:54 AM 39.9 °F - 33.1 °F 77% 30.22 in 10.0 mi Calm Calm - N/A   Clear
9:54 AM 46.0 °F 43.1 °F 28.9 °F 51% 30.20 in 10.0 mi South 5.8 mph - N/A   Clear
10:54 AM 48.9 °F - 28.9 °F 46% 30.20 in 10.0 mi South 8.1 mph - N/A   Clear
11:54 AM 51.1 °F - 28.9 °F 43% 30.19 in 10.0 mi ESE 6.9 mph - N/A   Clear
12:54 PM 54.0 °F - 28.9 °F 38% 30.17 in 10.0 mi South 6.9 mph - N/A   Clear
1:54 PM 55.0 °F - 28.0 °F 35% 30.14 in 10.0 mi Variable 6.9 mph - N/A   Clear
2:54 PM 57.0 °F - 28.0 °F 33% 30.12 in 10.0 mi Variable 5.8 mph - N/A   Clear
3:54 PM 57.9 °F - 28.0 °F 32% 30.09 in 10.0 mi Variable 6.9 mph - N/A   Clear
4:54 PM 57.9 °F - 28.0 °F 32% 30.07 in 10.0 mi ESE 4.6 mph - N/A   Clear
5:54 PM 57.9 °F - 28.9 °F 33% 30.06 in 10.0 mi SSE 5.8 mph - N/A   Clear
6:54 PM 55.9 °F - 28.9 °F 36% 30.06 in 10.0 mi SE 10.4 mph - N/A   Clear
7:54 PM 55.0 °F - 28.9 °F 37% 30.05 in 10.0 mi SE 9.2 mph - N/A   Clear
8:54 PM 53.1 °F - 30.0 °F 41% 30.06 in 10.0 mi SE 6.9 mph - N/A   Clear
9:54 PM 51.1 °F - 28.9 °F 43% 30.06 in 10.0 mi ESE 4.6 mph - N/A   Clear
10:54 PM 51.1 °F - 28.0 °F 41% 30.05 in 10.0 mi ESE 4.6 mph - N/A   Clear
11:54 PM 51.1 °F - 28.9 °F 43% 30.05 in 10.0 mi ESE 4.6 mph - N/A   Clear